Weather History for Sulphur Springs, TX

Change the Weather History Date:

Friday, October 26, 2012

  Actual Average (KGVT) Record (KGVT)
Temperature  
Mean Temperature 50 °F -  
Max Temperature 53 °F 72 °F 86 °F (2008)
Min Temperature 44 °F 55 °F 35 °F (2005)
Degree Days  
Heating Degree Days 16    
Moisture  
Dew Point 40 °F    
Average Humidity 66    
Maximum Humidity 82    
Minimum Humidity 54    
Precipitation  
Precipitation 0.01 in - - ()
Sea Level Pressure  
Sea Level Pressure 30.22 in    
Wind  
Wind Speed 15 mph (North)    
Max Wind Speed 21 mph    
Max Gust Speed 26 mph    
Visibility 10 miles    
Events Rain , Thunderstorm    
Averages and records for this station are not official NWS values.
T = Trace of Precipitation, MM = Missing Value Source: NWS Daily Summary

Daily Weather History Graph

Daily Weather History Graph

Search for Another Location

Airport:

Trip Planner

Search our weather history database for the weather conditions in past years. The results will help you decide how hot, cold, wet, or windy it might be!

Date:

Astronomy

Oct. 26, 2012 Rise Set
Actual Time 7:36 AM CDT 6:36 PM CDT
Civil Twilight 7:10 AM CDT 7:01 PM CDT
Nautical Twilight 6:41 AM CDT 7:30 PM CDT
Astronomical Twilight 6:12 AM CDT 7:59 PM CDT
Moon 4:46 PM CDT (10/26) 4:41 AM CDT (10/26)
Length of Visible Light 11h 50m
Length of Day
11h 00m
Waxing Gibbous, 91% of the Moon is Illuminated
Oct 26
Waxing Gibbous
Oct 29
Full
Nov 6
Last Quarter
Nov 13
New
Nov 20
First Quarter

Hourly Weather History & Observations

Time (CDT) Temp. Windchill Dew Point Humidity Pressure Visibility Wind Dir Wind Speed Gust Speed Precip Events Conditions
12:15 AM 50.0 °F - 44.6 °F 82% 30.09 in 7.0 mi North 15.0 mph 20.7 mph 0.01 in Rain Light Rain
12:35 AM 50.0 °F - 44.6 °F 82% 30.09 in 10.0 mi North 9.2 mph - 0.01 in   Overcast
12:55 AM 50.0 °F - 44.6 °F 82% 30.09 in 10.0 mi North 10.4 mph - 0.01 in   Overcast
1:15 AM 50.0 °F - 44.6 °F 82% 30.09 in 10.0 mi North 11.5 mph 16.1 mph N/A   Overcast
1:35 AM 51.8 °F - 42.8 °F 71% 30.09 in 10.0 mi North 12.7 mph - N/A   Overcast
1:55 AM 51.8 °F - 42.8 °F 71% 30.10 in 10.0 mi North 12.7 mph - N/A   Overcast
2:35 AM 51.8 °F - 42.8 °F 71% 30.11 in 10.0 mi North 17.3 mph - N/A   Overcast
2:55 AM 51.8 °F - 42.8 °F 71% 30.12 in 10.0 mi North 12.7 mph - N/A   Overcast
3:15 AM 50.0 °F - 42.8 °F 76% 30.12 in 10.0 mi North 11.5 mph 20.7 mph N/A   Overcast
3:55 AM 50.0 °F - 42.8 °F 76% 30.11 in 10.0 mi North 15.0 mph - N/A   Overcast
4:15 AM 50.0 °F - 42.8 °F 76% 30.11 in 10.0 mi North 11.5 mph - N/A   Overcast
4:35 AM 50.0 °F - 41.0 °F 71% 30.11 in 10.0 mi North 15.0 mph - N/A   Overcast
4:55 AM 50.0 °F - 41.0 °F 71% 30.12 in 10.0 mi North 12.7 mph - N/A   Overcast
5:15 AM 50.0 °F - 42.8 °F 76% 30.12 in 10.0 mi North 13.8 mph - N/A   Light Drizzle
5:35 AM 50.0 °F - 42.8 °F 76% 30.12 in 10.0 mi North 13.8 mph - N/A   Overcast
5:55 AM 50.0 °F - 41.0 °F 71% 30.15 in 10.0 mi North 12.7 mph 17.3 mph N/A   Overcast
6:15 AM 50.0 °F - 41.0 °F 71% 30.15 in 10.0 mi North 16.1 mph - N/A   Overcast
6:35 AM 50.0 °F - 42.8 °F 76% 30.15 in 7.0 mi North 15.0 mph - N/A Rain Light Rain
6:55 AM 50.0 °F - 42.8 °F 76% 30.16 in 10.0 mi North 12.7 mph - N/A Thunderstorm Thunderstorm
7:15 AM 50.0 °F - 42.8 °F 76% 30.16 in 10.0 mi North 12.7 mph - N/A   Overcast
7:35 AM 50.0 °F - 42.8 °F 76% 30.17 in 10.0 mi North 11.5 mph 17.3 mph N/A   Overcast
7:55 AM 50.0 °F - 41.0 °F 71% 30.18 in 10.0 mi North 11.5 mph - N/A   Overcast
8:55 AM 50.0 °F - 41.0 °F 71% 30.21 in 10.0 mi North 16.1 mph - N/A Thunderstorm Overcast
9:15 AM 50.0 °F - 41.0 °F 71% 30.22 in 10.0 mi North 19.6 mph 24.2 mph N/A   Overcast
9:35 AM 50.0 °F - 41.0 °F 71% 30.23 in 10.0 mi North 19.6 mph 25.3 mph N/A   Overcast
9:55 AM 50.0 °F - 41.0 °F 71% 30.24 in 10.0 mi North 19.6 mph 24.2 mph N/A   Overcast
10:15 AM 50.0 °F - 41.0 °F 71% 30.24 in 10.0 mi North 19.6 mph 24.2 mph N/A   Mostly Cloudy
10:35 AM 50.0 °F - 41.0 °F 71% 30.24 in 10.0 mi North 17.3 mph 23.0 mph N/A   Mostly Cloudy
10:55 AM 50.0 °F - 41.0 °F 71% 30.25 in 10.0 mi North 20.7 mph 24.2 mph N/A   Mostly Cloudy
11:15 AM 50.0 °F - 41.0 °F 71% 30.25 in 10.0 mi North 18.4 mph 23.0 mph N/A   Mostly Cloudy
11:35 AM 51.8 °F - 41.0 °F 67% 30.26 in 10.0 mi North 15.0 mph 23.0 mph N/A   Mostly Cloudy
11:55 AM 51.8 °F - 41.0 °F 67% 30.26 in 10.0 mi North 15.0 mph - N/A   Mostly Cloudy
12:15 PM 51.8 °F - 41.0 °F 67% 30.26 in 10.0 mi North 18.4 mph 24.2 mph N/A   Mostly Cloudy
12:35 PM 53.6 °F - 41.0 °F 62% 30.26 in 10.0 mi North 17.3 mph 20.7 mph N/A   Overcast
12:55 PM 53.6 °F - 41.0 °F 62% 30.26 in 10.0 mi North 18.4 mph - N/A   Overcast
1:15 PM 53.6 °F - 41.0 °F 62% 30.27 in 10.0 mi North 15.0 mph - N/A   Overcast
1:35 PM 53.6 °F - 41.0 °F 62% 30.26 in 10.0 mi North 17.3 mph 21.9 mph N/A   Overcast
1:55 PM 53.6 °F - 41.0 °F 62% 30.26 in 10.0 mi North 18.4 mph - N/A   Overcast
2:15 PM 53.6 °F - 41.0 °F 62% 30.25 in 10.0 mi North 20.7 mph - N/A   Overcast
2:35 PM 53.6 °F - 39.2 °F 58% 30.24 in 10.0 mi North 18.4 mph - N/A   Overcast
2:55 PM 53.6 °F - 41.0 °F 62% 30.24 in 10.0 mi North 18.4 mph - N/A   Overcast
3:15 PM 53.6 °F - 39.2 °F 58% 30.23 in 10.0 mi North 15.0 mph - N/A   Overcast
3:35 PM 53.6 °F - 39.2 °F 58% 30.24 in 10.0 mi North 17.3 mph 24.2 mph N/A   Overcast
3:55 PM 53.6 °F - 39.2 °F 58% 30.24 in 10.0 mi NNW 19.6 mph 23.0 mph N/A   Overcast
4:15 PM 53.6 °F - 39.2 °F 58% 30.24 in 10.0 mi North 18.4 mph 23.0 mph N/A   Overcast
4:35 PM 53.6 °F - 37.4 °F 54% 30.24 in 10.0 mi North 18.4 mph 26.5 mph N/A   Overcast
4:55 PM 53.6 °F - 37.4 °F 54% 30.24 in 10.0 mi NNW 20.7 mph 24.2 mph N/A   Overcast
5:15 PM 51.8 °F - 37.4 °F 58% 30.24 in 10.0 mi North 19.6 mph - N/A   Overcast
5:35 PM 53.6 °F - 37.4 °F 54% 30.24 in 10.0 mi North 16.1 mph - N/A   Overcast
5:55 PM 51.8 °F - 35.6 °F 54% 30.24 in 10.0 mi North 20.7 mph 24.2 mph N/A   Mostly Cloudy
6:15 PM 51.8 °F - 35.6 °F 54% 30.25 in 10.0 mi North 16.1 mph 21.9 mph N/A   Clear
6:35 PM 51.8 °F - 35.6 °F 54% 30.25 in 10.0 mi North 15.0 mph - N/A   Clear
7:15 PM 50.0 °F - 35.6 °F 58% 30.27 in 10.0 mi North 12.7 mph - N/A   Clear
7:35 PM 50.0 °F - 35.6 °F 58% 30.28 in 10.0 mi North 10.4 mph - N/A   Clear
7:55 PM 50.0 °F - 35.6 °F 58% 30.29 in 10.0 mi North 11.5 mph - N/A   Clear
8:15 PM 50.0 °F - 35.6 °F 58% 30.29 in 10.0 mi North 16.1 mph - N/A   Clear
8:35 PM 50.0 °F - 33.8 °F 54% 30.30 in 10.0 mi North 16.1 mph 21.9 mph N/A   Clear
8:55 PM 50.0 °F - 33.8 °F 54% 30.30 in 10.0 mi North 17.3 mph - N/A   Clear
9:15 PM 48.2 °F - 33.8 °F 58% 30.31 in 10.0 mi North 17.3 mph 23.0 mph N/A   Clear
9:35 PM 48.2 °F - 33.8 °F 58% 30.31 in 10.0 mi North 17.3 mph - N/A   Clear
9:55 PM 46.4 °F 39.5 °F 33.8 °F 62% 30.32 in 10.0 mi North 17.3 mph - N/A   Clear
10:15 PM 46.4 °F 39.8 °F 33.8 °F 62% 30.32 in 10.0 mi North 16.1 mph 23.0 mph N/A   Clear
10:35 PM 46.4 °F 39.5 °F 33.8 °F 62% 30.32 in 10.0 mi North 17.3 mph - N/A   Clear
10:55 PM 46.4 °F 39.8 °F 33.8 °F 62% 30.32 in 10.0 mi North 16.1 mph 21.9 mph N/A   Clear
11:35 PM 46.4 °F 40.1 °F 33.8 °F 62% 30.32 in 10.0 mi North 15.0 mph - N/A   Clear
11:55 PM 44.6 °F 38.1 °F 33.8 °F 66% 30.32 in 10.0 mi North 13.8 mph - N/A   Clear